Total_Precipitation_Accumulation
1.40 1.42 1.39 1.33 1.29 1.30 1.34 1.30 1.17 1.05 0.92 0.83 0.76 0.75 0.73 0.67 0.67 0.74 0.75 0.78 0.87 0.90 0.85 0.87 0.92 0.99 1.09 1.17 1.29 1.43 1.62 1.78 1.81 1.51 1.25 1.17 1.21 1.28 1.32 1.24 1.15 1.08 0.99
1.20 1.21 1.20 1.10 1.06 1.05 1.03 1.03 0.98 0.97 0.93 0.86 0.79 0.76 0.68 0.63 0.65 0.67 0.66 0.65 0.69 0.73 0.76 0.80 0.78 0.81 0.93 1.02 1.14 1.26 1.40 1.53 1.66 1.59 1.35 1.24 1.22 1.31 1.38 1.36 1.17 1.01 0.91
0.94 0.99 1.05 0.98 0.91 0.90 0.85 0.86 0.90 0.90 0.88 0.83 0.78 0.73 0.66 0.63 0.66 0.66 0.63 0.61 0.58 0.60 0.65 0.72 0.74 0.82 0.91 1.00 1.11 1.16 1.24 1.29 1.47 1.51 1.37 1.30 1.28 1.32 1.44 1.38 1.17 1.11 0.83
0.78 0.77 0.83 0.87 0.84 0.80 0.79 0.79 0.75 0.76 0.76 0.70 0.65 0.65 0.64 0.60 0.54 0.52 0.52 0.53 0.55 0.54 0.55 0.59 0.65 0.75 0.86 0.98 1.05 1.14 1.26 1.35 1.44 1.52 1.47 1.44 1.43 1.40 1.46 1.50 1.32 1.15 0.92
0.82 0.81 0.81 0.82 0.76 0.74 0.77 0.76 0.68 0.67 0.62 0.58 0.56 0.55 0.55 0.50 0.45 0.43 0.45 0.44 0.49 0.52 0.54 0.54 0.51 0.57 0.68 0.78 0.85 1.04 1.29 1.46 1.46 1.50 1.50 1.50 1.50 1.56 1.49 1.41 1.37 1.24 1.02
0.93 0.96 0.92 0.89 0.82 0.75 0.75 0.75 0.70 0.69 0.63 0.56 0.57 0.53 0.45 0.34 0.35 0.37 0.38 0.42 0.48 0.54 0.61 0.57 0.47 0.44 0.49 0.55 0.64 0.78 1.01 1.26 1.40 1.47 1.48 1.48 1.46 1.52 1.50 1.43 1.44 1.43 1.28
0.95 0.92 0.94 0.92 0.83 0.74 0.71 0.78 0.75 0.71 0.63 0.57 0.57 0.53 0.45 0.33 0.30 0.31 0.33 0.38 0.48 0.56 0.63 0.64 0.52 0.43 0.52 0.59 0.60 0.63 0.74 0.93 1.21 1.44 1.51 1.40 1.48 1.56 1.60 1.59 1.51 1.52 1.44
0.91 0.87 0.84 0.84 0.83 0.75 0.73 0.73 0.69 0.69 0.69 0.62 0.55 0.54 0.52 0.34 0.31 0.32 0.34 0.43 0.52 0.53 0.53 0.58 0.64 0.67 0.59 0.59 0.64 0.79 0.95 1.04 1.12 1.18 1.37 1.40 1.43 1.45 1.41 1.44 1.46 1.47 1.36
0.81 0.80 0.73 0.69 0.65 0.61 0.59 0.62 0.65 0.68 0.69 0.60 0.52 0.55 0.54 0.41 0.35 0.35 0.37 0.46 0.53 0.50 0.46 0.46 0.51 0.60 0.58 0.63 0.79 1.03 1.23 1.39 1.26 1.23 1.31 1.46 1.48 1.32 1.15 1.22 1.46 1.55 1.40
0.65 0.59 0.57 0.58 0.56 0.57 0.58 0.60 0.57 0.62 0.66 0.56 0.46 0.48 0.44 0.38 0.32 0.33 0.39 0.44 0.52 0.51 0.53 0.52 0.56 0.57 0.60 0.74 0.90 1.20 1.43 1.54 1.36 1.30 1.43 1.57 1.51 1.39 1.31 1.35 1.54 1.52 1.40
0.44 0.43 0.47 0.47 0.47 0.47 0.55 0.58 0.56 0.55 0.59 0.57 0.50 0.46 0.38 0.29 0.26 0.29 0.32 0.36 0.44 0.52 0.55 0.63 0.68 0.69 0.66 0.77 0.95 1.16 1.39 1.45 1.39 1.37 1.40 1.44 1.47 1.48 1.38 1.36 1.39 1.35 1.34
0.38 0.38 0.41 0.40 0.34 0.36 0.49 0.51 0.51 0.56 0.52 0.53 0.57 0.55 0.42 0.32 0.23 0.20 0.21 0.26 0.35 0.52 0.63 0.67 0.68 0.69 0.71 0.85 0.99 1.20 1.41 1.54 1.44 1.30 1.21 1.18 1.19 1.26 1.24 1.12 1.06 1.05 1.09
0.38 0.41 0.39 0.36 0.34 0.34 0.40 0.43 0.42 0.49 0.49 0.45 0.48 0.47 0.39 0.34 0.24 0.15 0.15 0.19 0.26 0.39 0.55 0.71 0.71 0.65 0.80 1.09 1.27 1.39 1.55 1.63 1.47 1.23 1.14 1.06 1.01 0.99 0.98 1.01 0.97 0.91 0.86
0.44 0.43 0.40 0.40 0.39 0.32 0.32 0.29 0.29 0.33 0.36 0.41 0.41 0.40 0.38 0.34 0.24 0.18 0.20 0.23 0.26 0.32 0.45 0.65 0.77 0.81 0.97 1.27 1.49 1.59 1.65 1.59 1.38 1.18 1.07 0.98 0.90 0.89 0.91 0.91 0.95 0.92 0.92
0.41 0.36 0.33 0.33 0.32 0.31 0.25 0.20 0.19 0.20 0.21 0.27 0.31 0.33 0.33 0.28 0.20 0.21 0.23 0.24 0.28 0.33 0.41 0.59 0.79 0.88 1.09 1.32 1.45 1.47 1.43 1.35 1.27 1.11 0.99 0.92 0.90 0.89 0.89 0.88 0.90 0.86 0.87
0.37 0.35 0.30 0.28 0.26 0.22 0.22 0.21 0.16 0.15 0.16 0.18 0.21 0.21 0.22 0.21 0.18 0.17 0.19 0.24 0.31 0.38 0.45 0.68 0.88 0.98 1.13 1.25 1.33 1.30 1.23 1.15 1.08 1.01 0.96 0.89 0.87 0.87 0.89 0.84 0.79 0.78 0.82
0.27 0.28 0.24 0.20 0.20 0.22 0.23 0.28 0.27 0.21 0.18 0.17 0.17 0.18 0.19 0.18 0.16 0.17 0.19 0.24 0.29 0.37 0.50 0.72 0.90 1.03 1.13 1.17 1.19 1.16 1.10 1.04 0.96 0.91 0.88 0.84 0.80 0.80 0.79 0.74 0.68 0.68 0.67
0.19 0.17 0.16 0.16 0.17 0.20 0.19 0.18 0.23 0.30 0.31 0.26 0.19 0.17 0.17 0.17 0.19 0.20 0.22 0.26 0.35 0.41 0.58 0.75 0.88 0.93 1.00 1.05 1.04 1.05 1.02 0.94 0.85 0.83 0.86 0.84 0.76 0.69 0.64 0.63 0.62 0.59 0.56
0.15 0.15 0.13 0.12 0.12 0.13 0.11 0.10 0.13 0.19 0.25 0.27 0.23 0.20 0.19 0.19 0.22 0.25 0.28 0.33 0.44 0.52 0.61 0.72 0.78 0.82 0.86 0.90 0.90 0.88 0.87 0.83 0.76 0.74 0.75 0.78 0.76 0.68 0.60 0.54 0.50 0.45 0.43
0.11 0.12 0.11 0.10 0.09 0.09 0.09 0.09 0.10 0.12 0.17 0.21 0.23 0.22 0.21 0.30 0.37 0.35 0.32 0.33 0.40 0.48 0.55 0.63 0.66 0.66 0.68 0.72 0.69 0.65 0.66 0.67 0.66 0.67 0.67 0.67 0.68 0.62 0.54 0.48 0.43 0.41 0.40
0.10 0.09 0.09 0.08 0.07 0.07 0.07 0.09 0.10 0.11 0.15 0.19 0.18 0.17 0.25 0.33 0.42 0.39 0.38 0.39 0.43 0.46 0.48 0.51 0.55 0.56 0.52 0.51 0.54 0.54 0.56 0.61 0.63 0.62 0.60 0.58 0.55 0.50 0.43 0.38 0.35 0.33 0.32
0.09 0.09 0.08 0.08 0.07 0.06 0.06 0.07 0.07 0.08 0.11 0.14 0.15 0.14 0.24 0.30 0.38 0.40 0.41 0.44 0.47 0.49 0.48 0.47 0.45 0.47 0.49 0.49 0.49 0.51 0.53 0.55 0.57 0.58 0.56 0.52 0.49 0.43 0.37 0.32 0.31 0.31 0.31
0.09 0.08 0.08 0.08 0.07 0.06 0.05 0.05 0.06 0.06 0.08 0.10 0.13 0.16 0.20 0.30 0.38 0.44 0.48 0.49 0.49 0.47 0.43 0.41 0.43 0.45 0.44 0.43 0.42 0.43 0.43 0.45 0.50 0.55 0.54 0.48 0.41 0.36 0.33 0.30 0.30 0.32 0.32
0.08 0.07 0.06 0.06 0.05 0.05 0.05 0.05 0.05 0.06 0.07 0.09 0.12 0.15 0.19 0.27 0.33 0.42 0.50 0.53 0.55 0.55 0.49 0.45 0.44 0.44 0.41 0.38 0.39 0.38 0.37 0.38 0.39 0.42 0.43 0.38 0.33 0.29 0.27 0.27 0.26 0.27 0.28
0.09 0.08 0.07 0.06 0.05 0.04 0.04 0.05 0.06 0.07 0.08 0.08 0.10 0.14 0.17 0.20 0.26 0.33 0.40 0.46 0.51 0.55 0.55 0.54 0.51 0.45 0.39 0.34 0.31 0.31 0.36 0.36 0.32 0.32 0.37 0.34 0.26 0.25 0.25 0.24 0.24 0.24 0.24
0.08 0.08 0.07 0.06 0.05 0.04 0.05 0.05 0.06 0.07 0.07 0.07 0.10 0.11 0.11 0.14 0.19 0.24 0.27 0.30 0.36 0.43 0.49 0.56 0.57 0.47 0.36 0.30 0.30 0.31 0.29 0.23 0.19 0.21 0.31 0.33 0.27 0.24 0.22 0.22 0.21 0.21 0.23